Location: ???? ??? ?????? ????????
(31.1242°N, 31.7469°E)
Time: 00:34:03
(UTC+00:00)

Daily predictions for brighter satellites

Satellite Brightness Start Highest point End
(mag) Time Altitude Azimuth Time Altitude Azimuth Time Altitude Azimuth
Cosmos 1816 Rocket 4.5 02:24:59 69° NE 02:25:36 75° E 02:31:43 10° S
SJ 16-02 4.3 02:24:39 10° NE 02:26:16 12° ENE 02:27:53 10° E
ATLAS 3B CENTAUR R/B 3.8 02:24:14 51° WSW 02:26:49 61° SSW 02:44:51 10° ESE
Cosmos 2322 3.9 02:30:04 38° S 02:32:12 67° ESE 02:37:52 10° NNE
H-II Stage 2 4.4 02:34:18 12° SE 02:34:18 12° SE 02:34:43 10° SE
Cosmos 2333 Rocket 2.7 02:28:22 10° S 02:33:52 58° ESE 02:39:23 10° NNE
Cosmos 1844 Rocket 3.9 02:34:15 21° N 02:37:27 38° ENE 02:42:35 10° SE
COSMOS 2455 2.8 02:38:22 66° SSW 02:38:22 66° SSW 02:43:40 10° SSE
ASTRO E2 4.3 02:42:11 30° SE 02:42:11 30° SE 02:44:26 10° ESE
Meteor 1-22 Rocket 4.3 02:37:05 10° S 02:42:36 76° E 02:48:22 10° N
H-2A R/B 4.2 02:40:58 10° S 02:42:04 18° S 02:42:04 18° S
Cosmos 1726 4.2 02:48:38 10° SSE 02:51:46 27° E 02:54:55 10° NNE
CZ-4B R/B 2.8 02:49:10 10° SSE 02:51:44 38° ESE 02:51:44 38° ESE
Cosmos 2219 Rocket 2.2 02:46:44 10° SSW 02:52:19 75° ESE 02:57:53 10° NNE
COSMOS 2428 3.1 02:47:10 10° S 02:52:46 62° ESE 02:58:23 10° NNE
Cosmos 2233 Rocket 3.9 02:47:14 10° SSW 02:53:27 66° W 02:59:41 10° N
Cosmos 1777 Rocket 3.9 02:54:26 48° NNW 02:55:58 89° ENE 03:01:14 10° SSE
CZ-3A R/B 3.8 02:50:32 32° WSW 02:56:26 57° S 03:03:45 10° ESE
Cosmos 2333 4.1 02:58:59 56° WSW 02:59:39 61° WNW 03:05:12 10° NNE
CSL-04 DEB 4.4 02:55:36 10° S 02:59:54 82° WSW 02:59:59 82° W
IRIDIUM 103 4.5 02:59:14 10° S 03:04:24 74° E 03:09:36 10° N
H-2A R/B 3.8 03:01:14 10° NNE 03:04:46 44° E 03:08:19 10° S
OAO 2 Rocket 3.2 03:09:44 49° WSW 03:11:04 85° SSE 03:15:59 10° ENE
Cosmos 44 3.8 03:09:39 22° NNW 03:13:09 68° ENE 03:18:29 10° SE
CZ-2C R/B 3.6 03:13:17 10° SSW 03:16:11 19° SSE 03:18:59 10° ESE
Cosmos 2360 Rocket 4.1 03:22:34 13° NNW 03:22:34 13° NNW 03:23:28 10° NNW
Delta 2 Rocket 4.0 03:19:09 37° WNW 03:21:31 90° E 03:27:07 10° ESE
IRIDIUM 106 4.2 03:17:30 10° S 03:22:41 72° W 03:27:54 10° N
Cosmos 1464 Rocket 4.1 03:17:44 10° S 03:23:50 76° E 03:29:57 10° N
IUS R/B (1) 3.5 03:22:50 18° SSW 03:23:57 23° S 03:25:50 10° ESE
CZ-4B R/B 2.5 03:20:38 10° N 03:24:11 57° WNW 03:27:46 10° SSW
Meteor 1-24 Rocket 3.6 03:19:35 10° NNW 03:25:02 74° W 03:30:39 10° S
deb Chang Zheng 4 3.7 03:21:13 10° N 03:25:17 47° WNW 03:29:20 10° SSW
Cosmos 1072 Rocket 4.4 03:20:31 10° S 03:26:39 88° E 03:32:53 10° N
Atlas Centaur 2 3.8 03:19:05 10° SW 03:26:57 51° SSE 03:35:04 10° E
Cosmos 1758 3.1 03:25:02 10° S 03:29:00 76° W 03:33:02 10° N
ATLAS 5 CENTAUR R/B 4.0 03:34:57 10° NNE 03:37:18 20° ENE 03:41:52 10° ESE
Cosmos 1892 Rocket 3.7 03:33:01 10° N 03:37:22 73° E 03:41:44 10° SSE
FALCON 9 DEB 4.4 03:34:50 10° SSW 03:38:03 42° SE 03:41:17 10° ENE
SAR-Lupe-4 3.6 03:34:41 10° SSE 03:38:15 80° ENE 03:41:51 10° N
SL-14 R/B 4.1 03:38:12 29° WNW 03:38:46 31° W 03:42:19 10° SSW
APEX 4.4 03:40:11 21° WSW 03:40:11 21° WSW 03:42:05 10° SSW
OAO 3 Rocket 3.0 03:38:23 27° WNW 03:40:55 85° SSW 03:45:34 10° ESE
GEOS 3 Rocket 3.6 03:35:54 10° SSE 03:41:12 75° WSW 03:46:11 12° NW
COSMO-SKYMED 1 2.8 03:38:03 10° S 03:42:13 46° W 03:46:19 10° NNW
Cosmos 540 Rocket 3.8 03:39:46 10° S 03:44:48 66° ESE 03:49:52 10° NNE
H-2A R/B 3.6 03:42:54 10° NNE 03:47:15 50° E 03:51:37 10° S
Cosmos 1844 3.8 03:41:56 10° NNW 03:47:38 60° WSW 03:53:18 10° S
NOSS 0 Rocket 3.9 03:41:41 10° SSW 03:47:53 88° WNW 03:54:06 10° NNE
OAO 1 Rocket 4.4 03:44:47 16° WSW 03:49:07 88° NNW 03:54:27 10° ENE
SMAP 4.1 03:45:01 10° NNE 03:49:31 49° E 03:54:00 10° S
SAR-Lupe-1 3.9 03:46:17 10° S 03:49:50 71° WSW 03:53:24 10° NNW
Aureole 2 Rocket 3.3 03:55:50 21° W 03:56:25 22° W 03:58:48 10° SSW
Cosmos 2034 Rocket 4.0 03:51:59 10° S 03:58:19 80° W 04:04:44 10° N
Cosmos 1898 Rocket 4.1 03:53:33 10° N 03:58:39 57° ENE 04:03:42 10° SSE
Cosmos 1470 4.0 03:55:59 10° SW 03:58:47 19° WNW 04:01:36 10° NNW
Cosmos 1763 Rocket 3.8 03:55:16 10° SW 04:00:02 40° WNW 04:04:53 10° N
Cosmos 841 Rocket 3.4 03:57:00 10° SSW 04:02:08 87° WNW 04:07:17 10° NNE
FALCON 9 R/B 1.6 03:58:23 12° W 04:02:57 35° SSW 04:05:00 10° SE
Cosmos 921 Rocket 3.6 03:59:53 10° SW 04:03:49 34° WNW 04:07:44 10° N
Spot 2 3.8 04:00:03 10° N 04:04:05 75° WNW 04:08:06 10° SSW
Okean 1-7 Rocket 3.6 04:00:03 10° N 04:04:36 85° W 04:09:05 10° S
SJ 16-02 1.7 04:00:53 10° NNW 04:05:02 44° W 04:09:11 10° S
ATLAS CENTAUR R/B 4.5 04:03:33 10° SSE 04:06:07 17° ESE 04:08:38 10° ENE
Cosmos 1544 Rocket 3.6 04:01:54 10° SSW 04:06:08 55° W 04:10:22 10° N
PAYLOAD B 4.3 04:01:38 10° NNE 04:07:13 89° WNW 04:12:49 10° SSW
Cosmos 1689 Rocket 2.8 04:05:39 10° SSW 04:08:19 32° W 04:11:00 10° NNW
SL-16 R/B 4.4 04:04:22 10° SSE 04:09:15 31° ESE 04:14:09 10° NE
Cosmos 2208 Rocket 4.5 04:04:04 10° S 04:09:27 71° ESE 04:14:53 10° NNE
ERS-2 3.4 04:07:36 10° SSW 04:10:29 22° W 04:13:25 10° NW
PSLV R/B 4.4 04:06:43 10° SSW 04:10:30 38° W 04:14:20 10° NNW
YAOGAN 6 3.4 04:09:45 10° NNW 04:12:59 29° WNW 04:16:13 10° SW
Cosmos 1461 3.6 04:09:54 10° SW 04:14:12 38° WNW 04:18:38 10° N
GPS 2-04 Rocket1 3.2 04:11:05 12° WNW 04:14:53 50° N 04:18:56 10° E
MOS 1 Rocket 4.2 04:10:22 10° SSW 04:15:08 34° W 04:19:43 10° NNW
Cosmos 1400 Rocket 3.0 04:11:15 10° S 04:15:15 80° E 04:19:21 10° N
CZ-4B R/B 3.5 04:12:19 10° NNE 04:18:00 80° ESE 04:23:35 10° S
Cosmos 2333 Rocket 3.6 04:15:06 10° W 04:18:28 16° WNW 04:21:52 10° NNW
Cosmos 2278 Rocket 3.1 04:14:54 10° N 04:20:25 50° ENE 04:25:53 10° SE
Cosmos 1844 Rocket 3.9 04:16:51 10° NW 04:21:00 22° W 04:25:07 10° SSW
Nadezhda 4 Rocket 3.9 04:18:02 10° N 04:24:08 73° W 04:30:11 10° S
SL-4 R/B 3.7 04:21:14 10° SSW 04:24:38 35° SE 04:28:19 10° ENE
Cosmos 2237 Rocket 2.3 04:19:16 10° SW 04:24:46 56° WNW 04:30:21 10° N
Cosmos 1726 4.0 04:25:25 10° W 04:26:56 12° WNW 04:28:27 10° NW
NOAA 6 4.5 04:23:51 10° N 04:28:40 40° WNW 04:33:29 10° SW
AQUARIUS 4.2 04:25:00 10° N 04:29:26 63° WNW 04:33:52 10° SSW
Cosmos 1814 Rocket 4.0 04:26:18 10° SSW 04:31:24 62° WNW 04:36:29 10° N
